Location: Zagreb
(45.8000°N, 16.0000°E)
Time: 14:36:11
(UTC+02:00)

Transit 2A - Pass Details

Date: 18 August 2022
Orbit: 601 x 956 km, 66.7° (Epoch: 25 September)

Event Time Altitude Azimuth Distance (km) Brightness Sun altitude
Rises 10:02:32 0° 182° (S) 3,151 9.4 40.4°
Reaches altitude 10° 10:05:14 10° 171° (S) 2,172 8.9 40.8°
Maximum altitude 10:09:22 28° 113° (ESE) 1,257 9.2 41.4°
Drops below altitude 10° 10:13:14 10° 55° (NE) 2,032 8.6 42.0°
Sets 10:15:41 0° 43° (NE) 2,909 9.1 42.4°
